Location: Gollag?dem
(16.8053°N, 80.8024°E)
Time: 18:16:45
(UTC+00:00)

Lacrosse 5 rocket - Pass Details

Date: 13 August 2020
Orbit: 464 x 632 km, 57.0° (Epoch: 17 September)

Event Time Altitude Azimuth Distance (km) Brightness Sun altitude
Exits shadow 21:46:34 20° 67° (ENE) 1,402 4.0 -34.7°
Drops below altitude 10° 21:48:15 10° 54° (NE) 1,964 4.9 -34.4°
Sets 21:50:44 0° 45° (NE) 2,888 6.0 -33.9°
